WZZ199 EKCH-LHBP

Flight info

Callsign WZZ199
Flight time 1h 25m
Altitude 37000
Route SIMEG Z493 BILRA DCT DESEN DCT VALPI DCT NIT/N0383F230 M748 ARFOX
Aircraft A321/M-SDE1E2E3FGIJ1J4RWXY/LB1

Departure

Time 2026-05-06 07:56
Airport Copenhagen Kastrup Airport (EKCH)

Arrival

Time 2026-05-06 09:22
Airport Budapest Liszt Ferenc International Airport (LHBP)
Time Latitude Longitude Altitude Speed Heading
2026-05-06 07:25 55.62515 12.65569 27 ft 0 kts 23°
2026-05-06 07:46 55.62499 12.65557 25 ft 4 kts 19°
2026-05-06 07:47 55.62473 12.65546 27 ft 4 kts
2026-05-06 07:47 55.62450 12.65554 28 ft 4 kts 311°
2026-05-06 07:47 55.62444 12.65572 28 ft 0 kts 269°
2026-05-06 07:49 55.62444 12.65571 28 ft 1 kts 269°
2026-05-06 07:50 55.62444 12.65519 26 ft 9 kts 269°
2026-05-06 07:50 55.62442 12.65396 24 ft 11 kts 269°
2026-05-06 07:50 55.62439 12.65254 24 ft 12 kts 259°
2026-05-06 07:50 55.62369 12.65204 24 ft 13 kts 175°
2026-05-06 07:51 55.62278 12.65200 24 ft 14 kts 180°
2026-05-06 07:51 55.62186 12.65151 24 ft 14 kts 212°
2026-05-06 07:51 55.62099 12.65051 24 ft 15 kts 213°
2026-05-06 07:51 55.62006 12.64943 24 ft 17 kts 213°
2026-05-06 07:52 55.61904 12.64825 24 ft 18 kts 212°
2026-05-06 07:52 55.61796 12.64702 24 ft 19 kts 213°
2026-05-06 07:52 55.61666 12.64552 26 ft 24 kts 213°
2026-05-06 07:52 55.61523 12.64387 24 ft 25 kts 213°
2026-05-06 07:53 55.61374 12.64217 24 ft 26 kts 213°
2026-05-06 07:53 55.61274 12.64101 26 ft 26 kts 213°
2026-05-06 07:53 55.61117 12.63923 24 ft 27 kts 213°
2026-05-06 07:53 55.60957 12.63738 26 ft 28 kts 213°
2026-05-06 07:54 55.60797 12.63554 25 ft 26 kts 213°
2026-05-06 07:54 55.60667 12.63403 24 ft 22 kts 214°
2026-05-06 07:54 55.60562 12.63246 24 ft 15 kts 221°
2026-05-06 07:54 55.60477 12.63253 24 ft 14 kts 137°
2026-05-06 07:55 55.60399 12.63405 25 ft 6 kts 133°
2026-05-06 07:55 55.60397 12.63434 26 ft 2 kts 54°
2026-05-06 07:55 55.60422 12.63470 24 ft 6 kts 41°
2026-05-06 07:55 55.60513 12.63614 24 ft 45 kts 41°
2026-05-06 07:56 55.60940 12.64275 29 ft 115 kts 41°
2026-05-06 07:56 55.61687 12.65431 99 ft 162 kts 39°
2026-05-06 07:56 55.62516 12.66710 919 ft 153 kts 39°
2026-05-06 07:56 55.63296 12.67903 1808 ft 143 kts 41°
2026-05-06 07:57 55.64051 12.69045 2401 ft 146 kts 42°
2026-05-06 07:57 55.64874 12.70311 2662 ft 167 kts 43°
2026-05-06 07:57 55.65806 12.71748 2889 ft 188 kts 41°
2026-05-06 07:57 55.66865 12.73344 3048 ft 213 kts 41°
2026-05-06 07:58 55.68064 12.75144 3328 ft 238 kts 41°
2026-05-06 07:58 55.69174 12.77403 3908 ft 249 kts 61°
2026-05-06 07:58 55.69743 12.80315 4687 ft 254 kts 82°
2026-05-06 07:58 55.69645 12.83456 5474 ft 260 kts 104°
2026-05-06 07:59 55.68854 12.86354 6277 ft 267 kts 126°
2026-05-06 07:59 55.67429 12.88522 6989 ft 276 kts 152°
2026-05-06 07:59 55.65629 12.89771 7751 ft 280 kts 160°
2026-05-06 07:59 55.63779 12.90922 8543 ft 283 kts 163°
2026-05-06 08:00 55.61828 12.91416 9307 ft 286 kts 183°
2026-05-06 08:00 55.59853 12.90939 10043 ft 288 kts 189°
2026-05-06 08:00 55.57790 12.91143 10294 ft 313 kts 162°
2026-05-06 08:00 55.55888 12.93251 10488 ft 337 kts 137°
2026-05-06 08:01 55.54257 12.96316 11004 ft 346 kts 132°
2026-05-06 08:01 55.52684 12.99560 11726 ft 350 kts 131°
2026-05-06 08:01 55.51094 13.02835 12414 ft 353 kts 133°
2026-05-06 08:01 55.49454 13.06085 13131 ft 356 kts 134°
2026-05-06 08:02 55.47764 13.09292 13804 ft 359 kts 135°
2026-05-06 08:02 55.46026 13.12483 14402 ft 362 kts 136°
2026-05-06 08:02 55.44279 13.15627 15007 ft 366 kts 136°
2026-05-06 08:02 55.42483 13.18834 15612 ft 370 kts 136°
2026-05-06 08:03 55.40669 13.22070 16221 ft 373 kts 136°
2026-05-06 08:03 55.38840 13.25338 16823 ft 377 kts 136°
2026-05-06 08:03 55.36995 13.28641 17423 ft 380 kts 136°
2026-05-06 08:03 55.35134 13.31977 18012 ft 384 kts 137°
2026-05-06 08:04 55.33255 13.35340 18550 ft 388 kts 137°
2026-05-06 08:04 55.31358 13.38738 19072 ft 391 kts 137°
2026-05-06 08:04 55.29454 13.42148 19648 ft 392 kts 137°
2026-05-06 08:04 55.27538 13.45574 20218 ft 394 kts 137°
2026-05-06 08:05 55.25616 13.49002 20796 ft 395 kts 137°
2026-05-06 08:05 55.23709 13.52497 21361 ft 398 kts 136°
2026-05-06 08:05 55.21858 13.56125 21912 ft 401 kts 134°
2026-05-06 08:05 55.20039 13.59842 22453 ft 403 kts 134°
2026-05-06 08:06 55.18229 13.63601 22970 ft 405 kts 134°
2026-05-06 08:06 55.16407 13.67381 23483 ft 407 kts 134°
2026-05-06 08:06 55.14566 13.71159 23902 ft 409 kts 135°
2026-05-06 08:06 55.12705 13.74929 24320 ft 411 kts 135°
2026-05-06 08:07 55.10826 13.78697 24728 ft 412 kts 135°
2026-05-06 08:07 55.08931 13.82477 25119 ft 414 kts 135°
2026-05-06 08:07 55.07029 13.86262 25547 ft 416 kts 135°
2026-05-06 08:07 55.05116 13.90056 25945 ft 417 kts 136°
2026-05-06 08:08 55.03197 13.93865 26343 ft 419 kts 135°
2026-05-06 08:08 55.01269 13.97688 26727 ft 421 kts 136°
2026-05-06 08:08 54.99331 14.01524 27112 ft 423 kts 136°
2026-05-06 08:08 54.97386 14.05373 27496 ft 425 kts 136°
2026-05-06 08:09 54.95430 14.09236 27874 ft 426 kts 135°
2026-05-06 08:09 54.93468 14.13109 28264 ft 427 kts 135°
2026-05-06 08:09 54.91392 14.16800 28622 ft 426 kts 142°
2026-05-06 08:09 54.89034 14.19897 28958 ft 426 kts 148°
2026-05-06 08:10 54.86595 14.22842 29306 ft 428 kts 148°
2026-05-06 08:10 54.84150 14.25800 29618 ft 430 kts 148°
2026-05-06 08:10 54.81690 14.28774 29925 ft 432 kts 148°
2026-05-06 08:10 54.79249 14.31725 30201 ft 435 kts 148°
2026-05-06 08:11 54.76682 14.34472 30496 ft 434 kts 155°
2026-05-06 08:11 54.73947 14.36678 30792 ft 434 kts 158°
2026-05-06 08:11 54.71198 14.38841 31177 ft 433 kts 158°
2026-05-06 08:11 54.68463 14.40990 31609 ft 431 kts 158°
2026-05-06 08:12 54.65736 14.43130 32043 ft 429 kts 158°
2026-05-06 08:12 54.63020 14.45260 32464 ft 428 kts 158°
2026-05-06 08:12 54.60314 14.47377 32873 ft 426 kts 158°
2026-05-06 08:12 54.57615 14.49487 33283 ft 425 kts 158°
2026-05-06 08:13 54.54925 14.51589 33700 ft 424 kts 158°
2026-05-06 08:13 54.52245 14.53678 34063 ft 422 kts 158°
2026-05-06 08:13 54.49568 14.55761 34360 ft 422 kts 158°
2026-05-06 08:13 54.46891 14.57844 34620 ft 423 kts 158°
2026-05-06 08:14 54.44211 14.59928 34855 ft 423 kts 159°
2026-05-06 08:14 54.41530 14.62012 35142 ft 423 kts 159°
2026-05-06 08:14 54.38850 14.64092 35408 ft 423 kts 159°
2026-05-06 08:14 54.36166 14.66169 35646 ft 424 kts 159°
2026-05-06 08:15 54.33479 14.68247 35908 ft 424 kts 159°
2026-05-06 08:15 54.30789 14.70325 36151 ft 424 kts 159°
2026-05-06 08:15 54.28094 14.72402 36387 ft 425 kts 159°
2026-05-06 08:15 54.25397 14.74474 36594 ft 426 kts 159°
2026-05-06 08:16 54.22690 14.76548 36791 ft 427 kts 159°
2026-05-06 08:16 54.19978 14.78627 36850 ft 427 kts 159°
2026-05-06 08:16 54.14552 14.82781 36853 ft 427 kts 159°
2026-05-06 08:17 54.09127 14.86922 36840 ft 427 kts 159°
2026-05-06 08:17 54.03698 14.91051 36818 ft 427 kts 159°
2026-05-06 08:18 53.98265 14.95171 36831 ft 428 kts 159°
2026-05-06 08:18 53.92827 14.99277 36840 ft 428 kts 159°
2026-05-06 08:19 53.87381 15.03379 36839 ft 428 kts 159°
2026-05-06 08:19 53.81932 15.07481 36833 ft 429 kts 159°
2026-05-06 08:20 53.76478 15.11565 36829 ft 429 kts 159°
2026-05-06 08:20 53.71022 15.15646 36832 ft 429 kts 159°
2026-05-06 08:21 53.65569 15.19713 36821 ft 429 kts 159°
2026-05-06 08:21 53.60113 15.23773 36821 ft 429 kts 160°
2026-05-06 08:22 53.54652 15.27802 36815 ft 429 kts 160°
2026-05-06 08:22 53.49192 15.31846 36823 ft 429 kts 159°
2026-05-06 08:23 53.43745 15.35886 36805 ft 428 kts 159°
2026-05-06 08:23 53.38336 15.39864 36818 ft 427 kts 159°
2026-05-06 08:24 53.32888 15.43851 36812 ft 427 kts 159°
2026-05-06 08:24 53.27406 15.47856 36810 ft 427 kts 159°
2026-05-06 08:25 53.21999 15.51793 36781 ft 427 kts 159°
2026-05-06 08:25 53.16557 15.55746 36792 ft 426 kts 159°
2026-05-06 08:26 53.11120 15.59681 36794 ft 426 kts 159°
2026-05-06 08:26 53.05694 15.63602 36795 ft 425 kts 159°
2026-05-06 08:27 53.00265 15.67528 36790 ft 425 kts 159°
2026-05-06 08:27 52.94843 15.71423 36788 ft 425 kts 160°
2026-05-06 08:28 52.89412 15.75307 36781 ft 425 kts 160°
2026-05-06 08:28 52.83980 15.79197 36783 ft 426 kts 159°
2026-05-06 08:29 52.78541 15.83082 36763 ft 426 kts 160°
2026-05-06 08:29 52.73101 15.86949 36772 ft 426 kts 160°
2026-05-06 08:30 52.67660 15.90816 36780 ft 426 kts 160°
2026-05-06 08:30 52.62217 15.94665 36773 ft 426 kts 160°
2026-05-06 08:31 52.56766 15.98503 36772 ft 426 kts 160°
2026-05-06 08:31 52.51304 16.02335 36778 ft 427 kts 160°
2026-05-06 08:32 52.45841 16.06169 36779 ft 427 kts 160°
2026-05-06 08:32 52.40374 16.10000 36755 ft 427 kts 160°
2026-05-06 08:33 52.34910 16.13820 36777 ft 427 kts 160°
2026-05-06 08:33 52.29448 16.17627 36776 ft 427 kts 160°
2026-05-06 08:34 52.21254 16.23310 36777 ft 426 kts 160°
2026-05-06 08:35 52.15792 16.27084 36777 ft 426 kts 160°
2026-05-06 08:35 52.10328 16.30845 36770 ft 426 kts 160°
2026-05-06 08:36 52.04859 16.34606 36766 ft 427 kts 160°
2026-05-06 08:36 51.99418 16.38336 36742 ft 427 kts 161°
2026-05-06 08:37 51.93937 16.42084 36762 ft 427 kts 161°
2026-05-06 08:37 51.88456 16.45820 36769 ft 428 kts 161°
2026-05-06 08:38 51.82972 16.49549 36768 ft 428 kts 161°
2026-05-06 08:38 51.77481 16.53275 36763 ft 428 kts 161°
2026-05-06 08:39 51.71982 16.56996 36771 ft 429 kts 161°
2026-05-06 08:39 51.66476 16.60715 36772 ft 429 kts 161°
2026-05-06 08:40 51.60965 16.64424 36754 ft 429 kts 161°
2026-05-06 08:40 51.55451 16.68120 36758 ft 429 kts 162°
2026-05-06 08:41 51.50869 16.71194 36765 ft 430 kts 162°
2026-05-06 08:41 51.45348 16.74880 36774 ft 430 kts 162°
2026-05-06 08:42 51.39827 16.78556 36777 ft 430 kts 162°
2026-05-06 08:42 51.34301 16.82230 36780 ft 430 kts 162°
2026-05-06 08:43 51.28773 16.85902 36775 ft 430 kts 162°
2026-05-06 08:43 51.23243 16.89552 36767 ft 430 kts 162°
2026-05-06 08:44 51.17710 16.93208 36799 ft 430 kts 162°
2026-05-06 08:44 51.12177 16.96845 36803 ft 430 kts 162°
2026-05-06 08:45 51.06641 17.00474 36802 ft 430 kts 162°
2026-05-06 08:45 51.01107 17.04102 36790 ft 430 kts 163°
2026-05-06 08:46 50.95564 17.07715 36786 ft 431 kts 163°
2026-05-06 08:46 50.90015 17.11322 36792 ft 431 kts 163°
2026-05-06 08:47 50.84462 17.14927 36775 ft 431 kts 163°
2026-05-06 08:47 50.78909 17.18528 36797 ft 431 kts 163°
2026-05-06 08:48 50.73358 17.22114 36794 ft 431 kts 163°
2026-05-06 08:48 50.67795 17.25684 36798 ft 432 kts 163°
2026-05-06 08:49 50.62226 17.29271 36799 ft 432 kts 163°
2026-05-06 08:49 50.56651 17.32841 36809 ft 433 kts 163°
2026-05-06 08:50 50.51072 17.36407 36810 ft 433 kts 163°
2026-05-06 08:50 50.45489 17.39966 36786 ft 433 kts 163°
2026-05-06 08:51 50.39906 17.43512 36796 ft 433 kts 163°
2026-05-06 08:51 50.34316 17.47051 36811 ft 434 kts 163°
2026-05-06 08:52 50.28725 17.50604 36834 ft 434 kts 163°
2026-05-06 08:52 50.22990 17.53133 36840 ft 427 kts 173°
2026-05-06 08:53 50.17191 17.55182 36845 ft 427 kts 173°
2026-05-06 08:53 50.11392 17.57239 36838 ft 428 kts 173°
2026-05-06 08:54 50.05590 17.59298 36850 ft 427 kts 173°
2026-05-06 08:54 49.99789 17.61353 36831 ft 427 kts 172°
2026-05-06 08:55 49.93990 17.63398 36847 ft 427 kts 173°
2026-05-06 08:55 49.88195 17.65443 36855 ft 427 kts 173°
2026-05-06 08:56 49.82404 17.67480 36856 ft 427 kts 173°
2026-05-06 08:56 49.76615 17.69497 36865 ft 426 kts 173°
2026-05-06 08:57 49.70831 17.71517 36864 ft 426 kts 173°
2026-05-06 08:57 49.65053 17.73531 36869 ft 426 kts 173°
2026-05-06 08:58 49.59277 17.75544 36872 ft 425 kts 173°
2026-05-06 08:58 49.53503 17.77554 36870 ft 425 kts 173°
2026-05-06 08:59 49.47733 17.79544 36867 ft 425 kts 173°
2026-05-06 08:59 49.41966 17.81526 36874 ft 424 kts 173°
2026-05-06 09:00 49.36247 17.83500 36885 ft 424 kts 173°
2026-05-06 09:00 49.30565 17.86100 36889 ft 429 kts 166°
2026-05-06 09:01 49.24948 17.89181 36879 ft 429 kts 166°
2026-05-06 09:01 49.19339 17.92293 36886 ft 429 kts 166°
2026-05-06 09:02 49.13728 17.95382 36880 ft 428 kts 166°
2026-05-06 09:02 49.08113 17.98447 36883 ft 429 kts 166°
2026-05-06 09:03 49.02482 18.01515 36885 ft 430 kts 166°
2026-05-06 09:03 48.96846 18.04578 36888 ft 430 kts 165°
2026-05-06 09:04 48.91203 18.07636 36900 ft 431 kts 165°
2026-05-06 09:04 48.85555 18.10696 36912 ft 431 kts 165°
2026-05-06 09:05 48.79901 18.13750 36916 ft 431 kts 165°
2026-05-06 09:05 48.74273 18.16920 36882 ft 435 kts 157°
2026-05-06 09:06 48.68938 18.21437 36140 ft 443 kts 155°
2026-05-06 09:06 48.66250 18.23746 35476 ft 445 kts 155°
2026-05-06 09:06 48.63553 18.26065 34829 ft 447 kts 155°
2026-05-06 09:06 48.60846 18.28392 34195 ft 448 kts 155°
2026-05-06 09:07 48.58128 18.30725 33530 ft 450 kts 155°
2026-05-06 09:07 48.55405 18.33057 32820 ft 451 kts 155°
2026-05-06 09:07 48.52672 18.35392 32131 ft 451 kts 155°
2026-05-06 09:07 48.49938 18.37725 31460 ft 452 kts 155°
2026-05-06 09:08 48.47205 18.40053 30786 ft 452 kts 155°
2026-05-06 09:08 48.44469 18.42380 30148 ft 451 kts 155°
2026-05-06 09:08 48.41740 18.44696 29434 ft 450 kts 155°
2026-05-06 09:08 48.39014 18.47006 28715 ft 449 kts 155°
2026-05-06 09:09 48.36299 18.49305 28004 ft 447 kts 154°
2026-05-06 09:09 48.33601 18.51595 27318 ft 444 kts 154°
2026-05-06 09:09 48.30916 18.53868 26637 ft 442 kts 154°
2026-05-06 09:09 48.28246 18.56125 25989 ft 439 kts 154°
2026-05-06 09:10 48.25588 18.58366 25352 ft 437 kts 154°
2026-05-06 09:10 48.22945 18.60587 24726 ft 434 kts 154°
2026-05-06 09:10 48.20319 18.62787 24111 ft 431 kts 154°
2026-05-06 09:10 48.17710 18.64974 23503 ft 428 kts 154°
2026-05-06 09:11 48.15118 18.67146 22792 ft 425 kts 154°
2026-05-06 09:11 48.12548 18.69304 22100 ft 422 kts 153°
2026-05-06 09:11 48.10030 18.71419 21430 ft 419 kts 153°
2026-05-06 09:11 48.07493 18.73550 20770 ft 417 kts 153°
2026-05-06 09:12 48.04973 18.75662 20119 ft 415 kts 153°
2026-05-06 09:12 48.02426 18.77794 19475 ft 413 kts 154°
2026-05-06 09:12 47.99921 18.79882 18830 ft 412 kts 154°
2026-05-06 09:12 47.97410 18.81966 18094 ft 414 kts 154°
2026-05-06 09:13 47.94892 18.84056 17257 ft 415 kts 154°
2026-05-06 09:13 47.92365 18.86151 16461 ft 416 kts 154°
2026-05-06 09:13 47.89834 18.88249 15677 ft 416 kts 154°
2026-05-06 09:13 47.87303 18.90348 14916 ft 417 kts 154°
2026-05-06 09:14 47.84771 18.92449 14168 ft 417 kts 154°
2026-05-06 09:14 47.82269 18.94524 13385 ft 401 kts 154°
2026-05-06 09:14 47.79909 18.96486 12584 ft 377 kts 154°
2026-05-06 09:14 47.77703 18.98316 11704 ft 360 kts 154°
2026-05-06 09:15 47.75562 19.00084 10792 ft 345 kts 154°
2026-05-06 09:15 47.73499 19.01781 9898 ft 334 kts 154°
2026-05-06 09:15 47.71497 19.03425 8960 ft 324 kts 154°
2026-05-06 09:15 47.69510 19.04851 8012 ft 311 kts 168°
2026-05-06 09:16 47.67426 19.05032 7206 ft 295 kts 193°
2026-05-06 09:16 47.65592 19.03885 6408 ft 284 kts 217°
2026-05-06 09:16 47.64123 19.01995 5572 ft 276 kts 222°
2026-05-06 09:16 47.62713 19.00096 4752 ft 272 kts 221°
2026-05-06 09:17 47.61116 18.98803 4395 ft 255 kts 190°
2026-05-06 09:17 47.59447 18.99128 4386 ft 238 kts 158°
2026-05-06 09:17 47.58114 19.00536 4251 ft 236 kts 140°
2026-05-06 09:17 47.57006 19.02298 3960 ft 232 kts 135°
2026-05-06 09:18 47.55943 19.04070 3651 ft 228 kts 136°
2026-05-06 09:18 47.54886 19.05806 3358 ft 225 kts 136°
2026-05-06 09:18 47.53846 19.07500 3082 ft 219 kts 137°
2026-05-06 09:18 47.52847 19.09127 2793 ft 207 kts 137°
2026-05-06 09:19 47.51924 19.10631 2517 ft 189 kts 136°
2026-05-06 09:19 47.51085 19.11998 2273 ft 170 kts 137°
2026-05-06 09:19 47.50316 19.13246 2062 ft 156 kts 137°
2026-05-06 09:19 47.49607 19.14397 1848 ft 148 kts 140°
2026-05-06 09:20 47.48922 19.15507 1668 ft 144 kts 137°
2026-05-06 09:20 47.48254 19.16591 1470 ft 141 kts 139°
2026-05-06 09:20 47.47587 19.17669 1279 ft 143 kts 140°
2026-05-06 09:20 47.46917 19.18755 1087 ft 143 kts 137°
2026-05-06 09:21 47.46252 19.19834 916 ft 141 kts 137°
2026-05-06 09:21 47.45600 19.20898 698 ft 139 kts 139°
2026-05-06 09:21 47.44953 19.21952 523 ft 140 kts 136°
2026-05-06 09:21 47.44319 19.22971 454 ft 121 kts 133°
2026-05-06 09:22 47.43854 19.23725 455 ft 75 kts 132°
2026-05-06 09:22 47.43608 19.24117 453 ft 39 kts 131°
2026-05-06 09:22 47.43434 19.24403 451 ft 36 kts 133°
2026-05-06 09:22 47.43274 19.24659 454 ft 32 kts 133°
2026-05-06 09:23 47.43149 19.24861 457 ft 15 kts 132°
2026-05-06 09:23 47.43087 19.24966 457 ft 8 kts 115°
2026-05-06 09:23 47.43107 19.25048 457 ft 9 kts 57°
2026-05-06 09:23 47.43153 19.25130 457 ft 11 kts 45°
2026-05-06 09:24 47.43214 19.25214 457 ft 13 kts 42°
2026-05-06 09:24 47.43285 19.25308 457 ft 14 kts 41°
2026-05-06 09:24 47.43364 19.25412 456 ft 16 kts 41°
2026-05-06 09:24 47.43450 19.25527 456 ft 17 kts 43°
2026-05-06 09:25 47.43541 19.25651 457 ft 19 kts 43°
2026-05-06 09:25 47.43606 19.25739 457 ft 20 kts 42°
2026-05-06 09:25 47.43705 19.25872 457 ft 16 kts 42°
2026-05-06 09:25 47.43713 19.26006 457 ft 15 kts 130°
2026-05-06 09:26 47.43676 19.26157 457 ft 17 kts 88°
2026-05-06 09:26 47.43669 19.26334 458 ft 18 kts 113°
2026-05-06 09:26 47.43617 19.26382 458 ft 6 kts 224°
2026-05-06 09:26 47.43591 19.26349 457 ft 1 kts 221°
2026-05-06 09:27 47.43591 19.26348 458 ft 0 kts 221°